Regional Weather Roundup
Issued by NWS Portland, ME

Current Version | Previous Version | Text Only | Print | Product List | Glossary On
Versions: 1 2 3 4 5 6 7 8 9 10 11 12 13 14 15 16 17 18 19 20 21 22 23 24 25 26 27 28 29 30 31 32 33 34 35 36 37 38 39 40 41 42 43 44 45 46 47 48 49 50
079
ASUS41 KGYX 041010
RWRGYX
WEATHER ROUNDUP FOR MAINE AND NEW HAMPSHIRE
NATIONAL WEATHER SERVICE GRAY ME
500 AM EST SUN DEC 04 2016

MEZ002-005-006-010-012-015-018-020-021-024-026-027-029-041100-
MAINE

CITY           SKY/WX    TMP DP  RH WIND       PRES   REMARKS
PORTLAND       CLOUDY    33  19  56 N10G20    30.10R
SANFORD        CLOUDY    31  21  66 W5        30.11R
BAR HARBOR     CLOUDY    29  23  78 NW5       30.04R
WISCASSET      CLOUDY    34  21  59 CALM      30.09R
ROCKLAND       CLOUDY    33  19  56 NW6       30.06R
FRYEBURG       MOCLDY    30  19  63 NW5       30.09R
LEWISTONAUBURN CLOUDY    32  22  66 N9        30.09R
AUGUSTA        CLOUDY    31  21  66 NW8       30.07R
WATERVILLE     CLOUDY    31  23  72 N10       30.04R
BANGOR         CLOUDY    30  24  78 NW9       30.04R
GREENVILLE       N/A     24  20  84 NW13G24   29.97R WCI  12
MILLINOCKET    CLOUDY    29  20  69 NW8       30.03R
HOULTON        CLOUDY    26  23  88 N7        29.99R
PRESQUE ISLE   CLOUDY    25  22  88 NW7       30.00S
FRENCHVILLE    CLOUDY    24  19  81 NW15      29.96S WCI  11
CARIBOU        CLOUDY    25  21  85 NW8       29.98S
$$

NHZ002-005-008-009-011-012-014-041100-
NEW HAMPSHIRE

CITY           SKY/WX    TMP DP  RH WIND       PRES   REMARKS
PORTSMOUTH     PTCLDY    31  20  62 W9        30.10R
ROCHESTER      MOCLDY    31  19  61 MISG      30.10R
NASHUA         CLOUDY    34  19  54 NW15      30.14S
MANCHESTER     CLOUDY    34  18  52 NW9G17    30.12R
CONCORD        CLOUDY    33  18  53 NW10      30.13R
LACONIA        CLOUDY    31  21  66 VRB7      30.11R
PLYMOUTH         N/A     31  22  68 W12G18    30.12S
BERLIN         CLOUDY    29  19  66 NW8       30.07R
WHITEFIELD     CLOUDY    28  18  66 NW5       30.11R
JAFFREY        CLOUDY    31  18  58 VRB6      30.11R
KEENE          CLOUDY    33  20  58 NW9       30.14S
LEBANON        CLOUDY    32  20  61 NW5       30.15R
MT WASHINGTON  BLWGSNOW   5   5 100 NW44G51     N/A  VSB 0   WCI -23
$$

VTZ005-007-008-041100-
VERMONT

CITY           SKY/WX    TMP DP  RH WIND       PRES   REMARKS
ST JOHNSBURY     N/A     29  20  69 MISG      30.12S
MONTPELIER     CLOUDY    27  21  78 VRB5      30.17R
BURLINGTON     CLOUDY    32  22  66 NW10      30.19S
$$

MAZ007-012-024-CTZ003-RIZ002-NYZ038-NYZ072-041100-
SOUTHERN NEW ENGLAND AND NY

CITY           SKY/WX    TMP DP  RH WIND       PRES   REMARKS
BOSTON         PTCLDY    34  20  56 NW9       30.14R
WORCESTER      PTCLDY    29  17  61 NW9       30.10S
NANTUCKET      CLOUDY    37  24  59 NW20G29   30.09R
PROVIDENCE     PTCLDY    33  20  58 NW8       30.15S
HARTFORD       MOCLDY    33  18  53 N7        30.16F
ALBANY         MOCLDY    30  18  60 NW7       30.20S
NEW YORK CITY  CLOUDY    43  26  51 NW14G22   30.19S
$$

ANZ081-ANZ082-ANZ150-NHZ014-MEZ023>029-041100-
COASTAL MARINE OBSERVATIONS

STATION/POSITION TIME  TEMP    WIND        PRES    WAVE
                       AIR SEA DIR/SP/G            HT/PER
                 (UTC) (F)     (DEG/KT/KT) (MB)    (FT/S)
MOUNT DESERT ROC 1000   33                 1016.6R
MATINICUS ROCK   0900   35     330/ 19/ 23 1016.4R
ISLE OF SHOALS   0900   35     300/ 16/ 18 1018.8R
JEFFREYS LEDGE   0938      51                N/A     4/ 6
CASHES LEDGE BUO 0950   38 50  320/ 19/ 25 1017.1R   7/ 6
GEORGES BANK BUO 0850   45 51              1011.6   12/ 8
$$

.............KEY..............
   WCI - WIND CHILL
   TC  - TEMPERATURE IN CELSIUS
   VSB - VISIBILITY IN MILES
   HX  - HEAT INDEX
   FAIR- INDICATES FEW OR NO CLOUDS BELOW 12,000 FT, WITH NO
         SIGNIFICANT WEATHER AND/OR OBSTRUCTIONS TO VISIBILITY.






USA.gov is the U.S. government's official web portal to all federal, state and local government web resources and services.